| time (UTC) | temp F | wind direction | speed knots | gust knots | rain 1hr in | rain 24hr in | rain mn in | humidity % | barometer mb |
| 20260506103035 | 47 | 42 | 0.0 | 0.0 | 0.00 | 0.00 | 0.00 | 1 | 1020.7 |
| 20260506101522 | 46 | 42 | 0.0 | 1.7 | 0.00 | 0.00 | 0.00 | 1 | 1020.7 |
| 20260506100016 | 46 | 26 | 0.9 | 2.6 | 0.00 | 0.00 | 0.00 | 1 | 1020.6 |
| 20260506094512 | 46 | 28 | 0.0 | 2.6 | 0.00 | 0.00 | 0.00 | 1 | 1020.6 |
| 20260506093008 | 47 | 48 | 0.0 | 1.7 | 0.00 | 0.00 | 0.00 | 1 | 1020.6 |
| 20260506091504 | 47 | 48 | 0.0 | 1.7 | 0.00 | 0.00 | 0.00 | 1 | 1020.6 |
| 20260506090059 | 47 | 48 | 0.0 | 1.7 | 0.00 | 0.00 | 0.00 | 1 | 1020.5 |
| 20260506084556 | 46 | 48 | 0.9 | 4.3 | 0.00 | 0.00 | 0.00 | 1 | 1020.6 |
| 20260506083051 | 46 | 29 | 3.5 | 6.1 | 0.00 | 0.00 | 0.00 | 1 | 1020.6 |
| 20260506081546 | 46 | 32 | 3.5 | 5.2 | 0.00 | 0.00 | 0.00 | 1 | 1020.7 |
| 20260506073032 | 46 | 41 | 3.5 | 5.2 | 0.00 | 0.00 | 0.00 | 1 | 1020.4 |
| 20260506071529 | 46 | 49 | 3.5 | 7.0 | 0.00 | 0.00 | 0.00 | 1 | 1020.3 |
| 20260506061513 | 46 | 50 | 4.3 | 7.8 | 0.00 | 0.00 | 0.00 | 1 | 1019.8 |
| 20260506044554 | 47 | 360 | 7.0 | 10.4 | 0.00 | 0.00 | 0.00 | 1 | 1019.4 |
| 20260506043043 | 47 | 360 | 7.8 | 11.3 | 0.00 | 0.00 | 0.00 | 1 | 1019.1 |
| 20260506041538 | 47 | 11 | 6.1 | 12.2 | 0.00 | 0.00 | 0.00 | 1 | 1018.8 |
| 20260506040034 | 47 | 355 | 7.0 | 10.4 | 0.00 | 0.00 | 0.00 | 1 | 1018.7 |
| 20260506034530 | 47 | 360 | 9.6 | 13.0 | 0.00 | 0.00 | 0.00 | 1 | 1018.5 |
| 20260506033025 | 47 | 5 | 7.8 | 11.3 | 0.00 | 0.00 | 0.00 | 1 | 1018.4 |
| 20260506031521 | 47 | 355 | 9.6 | 13.0 | 0.00 | 0.00 | 0.00 | 1 | 1018.0 |
| 20260506030027 | 47 | 355 | 8.7 | 13.0 | 0.00 | 0.00 | 0.00 | 1 | 1017.9 |
| 20260506024530 | 47 | 5 | 7.0 | 12.2 | 0.00 | 0.00 | 0.00 | 1 | 1017.9 |
| 20260506023008 | 48 | 355 | 9.6 | 12.2 | 0.00 | 0.00 | 0.00 | 1 | 1017.8 |
| 20260506021502 | 48 | 344 | 8.7 | 12.2 | 0.00 | 0.00 | 0.00 | 1 | 1017.7 |
| 20260506020058 | 49 | 360 | 9.6 | 13.0 | 0.00 | 0.00 | 0.00 | 1 | 1017.6 |
| 20260506014554 | 50 | 5 | 7.0 | 13.0 | 0.00 | 0.00 | 0.00 | 1 | 1017.4 |
| 20260506013050 | 50 | 355 | 7.8 | 13.0 | 0.00 | 0.00 | 0.00 | 1 | 1017.5 |
| 20260506011544 | 51 | 17 | 8.7 | 13.9 | 0.00 | 0.00 | 0.00 | 1 | 1017.5 |
| 20260506010040 | 51 | 355 | 7.8 | 14.8 | 0.00 | 0.00 | 0.00 | 1 | 1017.4 |
| 20260506004536 | 52 | 344 | 7.0 | 13.0 | 0.00 | 0.00 | 0.00 | 1 | 1017.3 |
| 20260506003036 | 53 | 342 | 8.7 | 13.9 | 0.00 | 0.00 | 0.00 | 1 | 1017.1 |
| 20260506001532 | 53 | 355 | 7.0 | 13.9 | 0.00 | 0.00 | 0.00 | 1 | 1017.1 |
| 20260506000021 | 54 | 355 | 6.1 | 13.9 | 0.00 | 0.00 | 0.00 | 1 | 1017.2 |
| 20260505234527 | 55 | 5 | 6.1 | 13.9 | 0.00 | 0.00 | 0.00 | 1 | 1017.1 |
| 20260505233015 | 55 | 331 | 8.7 | 12.2 | 0.00 | 0.00 | 0.00 | 1 | 1017.1 |
| 20260505231509 | 56 | 5 | 6.1 | 13.9 | 0.00 | 0.00 | 0.00 | 1 | 1017.1 |
| 20260505230007 | 56 | 337 | 7.8 | 12.2 | 0.00 | 0.00 | 0.00 | 1 | 1017.1 |
| 20260505224600 | 57 | 339 | 0.9 | 10.4 | 0.00 | 0.00 | 0.00 | 1 | 1017.1 |
| 20260505223058 | 57 | 355 | 3.5 | 7.8 | 0.00 | 0.00 | 0.00 | 1 | 1017.2 |
| 20260505221550 | 58 | 347 | 2.6 | 7.8 | 0.00 | 0.00 | 0.00 | 1 | 1017.4 |
| 20260505220046 | 58 | 342 | 0.0 | 7.0 | 0.00 | 0.00 | 0.00 | 1 | 1017.5 |
| 20260505214542 | 57 | 287 | 0.0 | 7.8 | 0.00 | 0.00 | 0.00 | 1 | 1017.5 |
| 20260505213047 | 57 | 355 | 1.7 | 8.7 | 0.00 | 0.00 | 0.00 | 1 | 1017.6 |
| 20260505211532 | 55 | 319 | 0.0 | 8.7 | 0.00 | 0.00 | 0.00 | 1 | 1017.6 |
| 20260505210027 | 54 | 342 | 0.0 | 9.6 | 0.00 | 0.00 | 0.00 | 1 | 1017.7 |
| 20260505204523 | 53 | 346 | 1.7 | 7.8 | 0.00 | 0.00 | 0.00 | 1 | 1017.8 |
| 20260505203020 | 52 | 272 | 4.3 | 8.7 | 0.00 | 0.00 | 0.00 | 1 | 1017.9 |
| 20260505201515 | 52 | 308 | 2.6 | 7.0 | 0.00 | 0.00 | 0.00 | 1 | 1018.1 |
| 20260505200011 | 50 | 337 | 2.6 | 8.7 | 0.00 | 0.00 | 0.00 | 1 | 1018.1 |
| 20260505194505 | 50 | 277 | 2.6 | 7.8 | 0.00 | 0.00 | 0.00 | 1 | 1018.1 |
| 20260505193059 | 50 | 360 | 1.7 | 7.8 | 0.00 | 0.00 | 0.00 | 1 | 1018.1 |
| 20260505191611 | 49 | 360 | 2.6 | 7.0 | 0.00 | 0.00 | 0.00 | 1 | 1018.2 |
| 20260505190053 | 48 | 321 | 0.9 | 5.2 | 0.00 | 0.00 | 0.00 | 1 | 1018.1 |
| 20260505184546 | 48 | 360 | 2.6 | 7.0 | 0.00 | 0.00 | 0.00 | 1 | 1018.1 |
| 20260505183042 | 48 | 355 | 4.3 | 7.0 | 0.00 | 0.00 | 0.00 | 1 | 1018.1 |
| 20260505181537 | 47 | 32 | 2.6 | 7.0 | 0.00 | 0.00 | 0.00 | 1 | 1017.9 |
| 20260505180044 | 47 | 355 | 5.2 | 7.8 | 0.00 | 0.00 | 0.00 | 1 | 1017.8 |
| 20260505174532 | 47 | 335 | 3.5 | 8.7 | 0.00 | 0.00 | 0.00 | 1 | 1017.5 |
| 20260505173024 | 46 | 5 | 0.0 | 7.8 | 0.00 | 0.00 | 0.00 | 1 | 1017.4 |
| 20260505171519 | 46 | 360 | 4.3 | 7.8 | 0.00 | 0.00 | 0.00 | 1 | 1017.3 |
| 20260505170015 | 46 | 355 | 4.3 | 7.8 | 0.00 | 0.00 | 0.00 | 1 | 1017.3 |
| 20260505164510 | 46 | 5 | 4.3 | 9.6 | 0.00 | 0.00 | 0.00 | 1 | 1017.3 |
| 20260505163009 | 46 | 355 | 6.1 | 11.3 | 0.00 | 0.00 | 0.00 | 1 | 1017.1 |
| 20260505161601 | 46 | 360 | 10.4 | 13.0 | 0.00 | 0.00 | 0.00 | 1 | 1017.0 |
| 20260505153048 | 45 | 360 | 10.4 | 15.6 | 0.00 | 0.00 | 0.00 | 1 | 1016.7 |
| 20260505151543 | 45 | 350 | 12.2 | 15.6 | 0.00 | 0.00 | 0.00 | 1 | 1016.5 |
| 20260505124558 | 45 | 345 | 7.0 | 13.0 | 0.00 | 0.00 | 0.00 | 1 | 1015.9 |
| 20260505123058 | 45 | 350 | 8.7 | 15.6 | 0.00 | 0.00 | 0.00 | 1 | 1015.8 |
| 20260505121549 | 44 | 355 | 11.3 | 14.8 | 0.00 | 0.00 | 0.00 | 1 | 1015.6 |
| 20260505120045 | 44 | 360 | 10.4 | 13.9 | 0.00 | 0.00 | 0.00 | 1 | 1015.7 |
| 20260505114541 | 44 | 9 | 11.3 | 14.8 | 0.00 | 0.00 | 0.00 | 1 | 1015.6 |
| 20260505113039 | 44 | 355 | 9.6 | 12.2 | 0.00 | 0.00 | 0.00 | 1 | 1015.7 |
| 20260505111531 | 45 | 348 | 9.6 | 12.2 | 0.00 | 0.00 | 0.00 | 1 | 1015.7 |